Change the Weather History Date:

Thursday, August 22, 2013

  Actual Average (KPAH) Record (KPAH)
Temperature  
Mean Temperature 78 °F 77 °F  
Max Temperature 89 °F 89 °F 101 °F (1987)
Min Temperature 66 °F 66 °F 50 °F (1956)
Degree Days  
Heating Degree Days 0 0  
Month to date heating degree days 0  
Since 1 June heating degree days 4  
Since 1 July heating degree days 0  
Cooling Degree Days 12 12  
Month to date cooling degree days 284  
Year to date cooling degree days 1207  
Since 1 June cooling degree days 1035  
Growing Degree Days 28 (Base 50)    
Moisture  
Dew Point 71 °F    
Average Humidity 84    
Maximum Humidity 100    
Minimum Humidity 52    
Precipitation  
Precipitation 0.04 in 0.09 in 1.26 in (1964)
Month to date precipitation 2.00  
Year to date precipitation 31.72  
Snow  
Snow 0.00 in 0.00 in 0.00 in (2002)
Month to date snowfall 0.0  
Since 1 June snowfall 0.0  
Since 1 July snowfall 0.0  
Snow Depth -    
Sea Level Pressure  
Sea Level Pressure 30.08 in    
Wind  
Wind Speed 1 mph (West)    
Max Wind Speed 6 mph    
Max Gust Speed 9 mph    
Visibility 6 miles    
Events Fog , Rain    
T = Trace of Precipitation, MM = Missing Value Source: NWS Daily Summary

Daily Weather History Graph

Daily Weather History Graph

Search for Another Location

Airport or City:

Trip Planner

Search our weather history database for the weather conditions in past years. The results will help you decide how hot, cold, wet, or windy it might be!

Date:

Astronomy

Aug. 22, 2013 Rise Set
Actual Time 6:17 AM CDT 7:37 PM CDT
Civil Twilight 5:50 AM CDT 8:04 PM CDT
Nautical Twilight 5:17 AM CDT 8:36 PM CDT
Astronomical Twilight 4:43 AM CDT 9:10 PM CDT
Moon 8:25 PM CDT (8/22) 8:02 AM CDT (8/22)
Length of Visible Light 14h 14m
Length of Day
13h 19m
Waning Gibbous, 96% of the Moon is Illuminated
Aug 22
Waning Gibbous
Aug 28
Last Quarter
Sep 5
New
Sep 12
First Quarter
Sep 19
Full

Hourly Weather History & Observations

Time (CDT) Temp. Heat Index Dew Point Humidity Pressure Visibility Wind Dir Wind Speed Gust Speed Precip Events Conditions
12:15 AM 70.9 °F - 70.9 °F 100% 30.12 in 1.0 mi Calm Calm - N/A   Mist
12:35 AM 70.5 °F - 70.5 °F 100% 30.11 in 0.5 mi Calm Calm - N/A Fog Fog
12:55 AM 70.0 °F - 70.0 °F 100% 30.11 in 0.5 mi Calm Calm - N/A Fog Fog
1:15 AM 69.6 °F - 69.6 °F 100% 30.11 in 0.8 mi Calm Calm - N/A   Mist
1:35 AM 69.1 °F - 69.1 °F 100% 30.10 in 0.8 mi Calm Calm - N/A   Mist
1:55 AM 68.9 °F - 68.9 °F 100% 30.09 in 0.5 mi Calm Calm - N/A Fog Fog
2:15 AM 69.1 °F - 69.1 °F 100% 30.09 in 0.8 mi Calm Calm - N/A   Mist
2:35 AM 67.6 °F - 67.6 °F 100% 30.08 in 0.5 mi Calm Calm - N/A Fog Fog
2:55 AM 68.4 °F - 68.4 °F 100% 30.09 in 0.2 mi Calm Calm - N/A Fog Fog
3:15 AM 68.4 °F - 68.4 °F 100% 30.09 in 0.8 mi Calm Calm - N/A   Mist
3:35 AM 67.3 °F - 67.3 °F 100% 30.09 in 2.5 mi Calm Calm - N/A   Clear
3:55 AM 67.3 °F - 67.3 °F 100% 30.09 in 3.0 mi Calm Calm - N/A   Clear
4:15 AM 67.5 °F - 67.5 °F 100% 30.11 in 3.0 mi Calm Calm - N/A   Clear
4:35 AM 67.3 °F - 67.3 °F 100% 30.10 in 3.0 mi Calm Calm - N/A   Clear
4:55 AM 67.3 °F - 67.3 °F 100% 30.11 in 1.8 mi Calm Calm - N/A   Mist
5:15 AM 67.1 °F - 67.1 °F 100% 30.11 in 1.2 mi Calm Calm - N/A   Mist
5:35 AM 66.4 °F - 66.4 °F 100% 30.11 in 2.5 mi Calm Calm - N/A   Clear
5:55 AM 66.6 °F - 66.6 °F 100% 30.12 in 1.0 mi Calm Calm - N/A   Mist
6:15 AM 66.7 °F - 66.7 °F 100% 30.12 in 2.0 mi Calm Calm - N/A   Clear
6:35 AM 66.4 °F - 66.4 °F 100% 30.12 in 1.0 mi Calm Calm - N/A   Mist
6:55 AM 66.6 °F - 66.6 °F 100% 30.13 in 7.0 mi Calm Calm - N/A   Scattered Clouds
7:15 AM 68.2 °F - 68.2 °F 100% 30.13 in 4.0 mi Calm Calm - N/A   Scattered Clouds
7:35 AM 70.2 °F - 70.2 °F 100% 30.13 in 5.0 mi Calm Calm - N/A   Clear
7:55 AM 72.3 °F - 72.3 °F 100% 30.13 in 7.0 mi Calm Calm - N/A   Clear
8:15 AM 74.3 °F - 74.3 °F 100% 30.12 in 10.0 mi Calm Calm - N/A   Clear
8:35 AM 76.1 °F - 74.7 °F 95% 30.13 in 10.0 mi Calm Calm - N/A   Clear
8:55 AM 77.5 °F - 74.7 °F 91% 30.12 in - Calm Calm - N/A   Unknown
9:15 AM 79.2 °F - 74.8 °F 87% 30.12 in 10.0 mi Calm Calm - N/A   Clear
9:35 AM 79.9 °F - 74.3 °F 83% 30.12 in 10.0 mi Calm Calm - N/A   Clear
9:55 AM 81.7 °F 88.3 °F 75.2 °F 81% 30.12 in 10.0 mi WSW 3.5 mph - N/A   Clear
10:15 AM 82.9 °F 91.5 °F 76.5 °F 81% 30.12 in 10.0 mi SW 3.5 mph - N/A   Clear
10:35 AM 83.8 °F 92.5 °F 75.9 °F 77% 30.12 in 10.0 mi SW 3.5 mph - N/A   Clear
10:55 AM 84.4 °F 93.1 °F 75.6 °F 75% 30.12 in 10.0 mi SW 3.5 mph - N/A   Clear
11:15 AM 84.9 °F 93.7 °F 75.2 °F 73% 30.12 in 10.0 mi West 5.8 mph - N/A   Clear
11:35 AM 85.6 °F 91.5 °F 71.8 °F 63% 30.12 in 10.0 mi West 3.5 mph - N/A   Clear
11:55 AM 85.8 °F 91.5 °F 71.6 °F 62% 30.11 in 10.0 mi WNW 5.8 mph - N/A   Clear
12:15 PM 86.5 °F 92.5 °F 71.8 °F 61% 30.11 in 10.0 mi WNW 4.6 mph - N/A   Clear
12:35 PM 87.1 °F 92.0 °F 70.3 °F 57% 30.10 in 10.0 mi WNW 3.5 mph - N/A   Clear
12:55 PM 87.3 °F 92.4 °F 70.3 °F 57% 30.10 in 10.0 mi WNW 4.6 mph - N/A   Scattered Clouds
1:15 PM 87.8 °F 92.6 °F 69.6 °F 55% 30.10 in 10.0 mi Calm Calm - N/A   Mostly Cloudy
1:35 PM 88.2 °F 93.3 °F 70.0 °F 55% 30.09 in 10.0 mi West 4.6 mph - N/A   Mostly Cloudy
1:55 PM 88.7 °F 94.3 °F 70.5 °F 55% 30.08 in 10.0 mi WNW 4.6 mph - N/A   Scattered Clouds
2:15 PM 89.2 °F 94.9 °F 70.5 °F 54% 30.08 in 10.0 mi West 5.8 mph - N/A   Scattered Clouds
2:35 PM 84.0 °F 88.4 °F 70.0 °F 63% 30.08 in 7.0 mi NE 5.8 mph 9.2 mph 0.02 in Rain Heavy Rain
2:55 PM 81.5 °F 87.4 °F 74.3 °F 79% 30.07 in 10.0 mi Calm Calm - 0.04 in Rain Light Rain
3:15 PM 86.5 °F 92.5 °F 71.4 °F 61% 30.07 in 10.0 mi Calm Calm - N/A   Scattered Clouds
3:35 PM 87.3 °F 91.6 °F 69.3 °F 55% 30.06 in 10.0 mi Calm Calm - N/A   Clear
3:55 PM 87.8 °F 92.2 °F 69.1 °F 54% 30.05 in 10.0 mi Calm Calm - N/A   Clear
4:15 PM 88.0 °F 91.8 °F 68.5 °F 52% 30.04 in 10.0 mi Calm Calm - N/A   Clear
4:35 PM 87.8 °F 94.3 °F 71.8 °F 59% 30.04 in 10.0 mi Calm Calm - N/A   Clear
4:55 PM 87.8 °F 91.8 °F 68.5 °F 53% 30.03 in 10.0 mi Calm Calm - N/A   Clear
5:15 PM 88.0 °F 91.8 °F 68.5 °F 52% 30.03 in 10.0 mi Calm Calm - N/A   Clear
5:35 PM 87.6 °F 91.9 °F 69.1 °F 54% 30.02 in 10.0 mi Calm Calm - N/A   Clear
5:55 PM 87.1 °F 91.6 °F 69.6 °F 56% 30.02 in 10.0 mi Calm Calm - N/A   Clear
6:15 PM 86.4 °F 93.8 °F 73.4 °F 65% 30.02 in 10.0 mi Calm Calm - N/A   Clear
6:35 PM 84.6 °F 92.4 °F 74.5 °F 72% 30.02 in 10.0 mi Calm Calm - N/A   Clear
6:55 PM 81.7 °F 87.6 °F 74.3 °F 78% 30.03 in 10.0 mi Calm Calm - N/A   Clear
7:15 PM 80.8 °F 86.5 °F 75.0 °F 83% 30.03 in 10.0 mi Calm Calm - N/A   Clear
7:35 PM 79.2 °F - 76.8 °F 92% 30.03 in 10.0 mi Calm Calm - N/A   Clear
7:55 PM 77.7 °F - 76.1 °F 95% 30.03 in 7.0 mi Calm Calm - N/A   Clear
8:15 PM 77.0 °F - 75.7 °F 96% 30.03 in 7.0 mi Calm Calm - N/A   Clear
8:35 PM 76.3 °F - 75.6 °F 98% 30.03 in 7.0 mi Calm Calm - N/A   Clear
8:55 PM 75.7 °F - 75.0 °F 98% 30.04 in 7.0 mi Calm Calm - N/A   Clear
9:15 PM 76.1 °F - 74.8 °F 96% 30.04 in 10.0 mi Calm Calm - N/A   Clear
9:35 PM 74.8 °F - 74.8 °F 100% 30.05 in 7.0 mi Calm Calm - N/A   Clear
9:55 PM 74.3 °F - 74.3 °F 100% 30.05 in 7.0 mi Calm Calm - N/A   Clear
10:15 PM 74.3 °F - 74.3 °F 100% 30.05 in 5.0 mi Calm Calm - N/A   Clear
10:35 PM 73.9 °F - 73.9 °F 100% 30.05 in 4.0 mi Calm Calm - N/A   Clear
10:55 PM 73.8 °F - 73.8 °F 100% 30.06 in 4.0 mi Calm Calm - N/A   Clear
11:15 PM 73.6 °F - 73.6 °F 100% 30.06 in 4.0 mi Calm Calm - N/A   Clear
11:35 PM 72.9 °F - 72.9 °F 100% 30.06 in 4.0 mi Calm Calm - N/A   Clear
11:55 PM 73.0 °F - 73.0 °F 100% 30.06 in 3.0 mi Calm Calm - N/A   Mist